Bidar Air Force Station

Jump to: basic info | weather | frequencies | runways | comments

Related pages: nearby airports | nearby navaids | notams | map

Basic information (top)

Codes: VOBR
Location: lon 17.908100, lat 77.487099, elev 2,178 ft / 664 m msl
Status: medium_airport

Weather (top)

Current conditions for Begumpet Airport 62nm (116km) ESE (rec'd 2014/10/25 15:40Z):

VOHY 251540Z 31005KT 3000 -RA SCT015 OVC080 20/17 Q1017 NOSIG

Airport forecast for Begumpet Airport 62nm (116km) ESE (rec'd 2014/09/29 03:00Z):

TAF VOHY 300000Z 3003/3012 09010KT 6000 SCT015 SCT100 
      TEMPO 3009/3012 FEW030TCU

Frequencies (top)

Verify before use: may be inaccurate or out of date.

APP: 122.85 MHz ()
Twr: 123.5 MHz ()

Runways (top)

02/20: 6,955 x 148 ft (2,120 x 45 m) — paved — lighted

08/26: 6,798 x 150 ft (2,072 x 46 m) — paved — lighted

Latest comments (top)

939814-l: stendra [read]

More... (top)

See also NOTAMs and nearby airports and navaids, or visit the Bidar Air Force Station page at the main OurAirports website..